Change the Weather History Date:

Tuesday, July 23, 2013

  Actual Average (KEGV) Record (KEGV)
Temperature  
Mean Temperature 54 °F -  
Max Temperature 65 °F 75 °F 86 °F (2012)
Min Temperature 44 °F 50 °F 39 °F (2004)
Degree Days  
Heating Degree Days 10    
Growing Degree Days 4 (Base 50)    
Moisture  
Dew Point 46 °F    
Average Humidity 70    
Maximum Humidity 97    
Minimum Humidity 45    
Precipitation  
Precipitation 0.00 in - - ()
Sea Level Pressure  
Sea Level Pressure 29.94 in    
Wind  
Wind Speed 8 mph (NNW)    
Max Wind Speed 17 mph    
Max Gust Speed 31 mph    
Visibility 10 miles    
Events      
Averages and records for this station are not official NWS values.
T = Trace of Precipitation, MM = Missing Value Source: NWS Daily Summary

Daily Weather History Graph

Daily Weather History Graph

Search for Another Location

Airport or City:

Trip Planner

Search our weather history database for the weather conditions in past years. The results will help you decide how hot, cold, wet, or windy it might be!

Date:

Astronomy

Jul. 23, 2013 Rise Set
Actual Time 5:28 AM CDT 8:37 PM CDT
Civil Twilight 4:52 AM CDT 9:13 PM CDT
Nautical Twilight 4:06 AM CDT 9:59 PM CDT
Astronomical Twilight 3:08 AM CDT 10:56 PM CDT
Moon 8:55 PM CDT (7/23) 6:44 AM CDT (7/23)
Length of Visible Light 16h 20m
Length of Day
15h 08m
Full, 99% of the Moon is Illuminated
Jul 23
Full
Jul 29
Last Quarter
Aug 6
New
Aug 14
First Quarter
Aug 20
Full

Hourly Weather History & Observations

Time (CDT) Temp. Dew Point Humidity Pressure Visibility Wind Dir Wind Speed Gust Speed Precip Events Conditions
12:15 AM 58.8 °F 52.2 °F 79% 29.77 in 10.0 mi NW 3.5 mph - N/A   Clear
12:35 AM 57.6 °F 52.2 °F 82% 29.77 in 10.0 mi Calm Calm - N/A   Clear
12:55 AM 56.7 °F 51.8 °F 84% 29.77 in 10.0 mi WNW 3.5 mph - N/A   Clear
1:15 AM 56.7 °F 51.6 °F 83% 29.78 in 10.0 mi WNW 5.8 mph - N/A   Clear
1:35 AM 56.7 °F 51.3 °F 82% 29.78 in 10.0 mi Calm Calm - N/A   Clear
1:55 AM 53.6 °F 50.7 °F 90% 29.79 in 10.0 mi WSW 3.5 mph - N/A   Clear
2:15 AM 54.1 °F 50.9 °F 89% 29.79 in 10.0 mi WSW 4.6 mph - N/A   Clear
2:35 AM 54.7 °F 50.9 °F 87% 29.80 in 10.0 mi West 4.6 mph - N/A   Clear
2:55 AM 55.6 °F 50.9 °F 84% 29.80 in 10.0 mi WNW 6.9 mph - N/A   Clear
3:15 AM 55.6 °F 50.7 °F 84% 29.80 in 10.0 mi WNW 6.9 mph - N/A   Clear
3:35 AM 55.6 °F 50.9 °F 84% 29.80 in 10.0 mi NW 5.8 mph - N/A   Scattered Clouds
3:55 AM 55.9 °F 51.1 °F 84% 29.80 in 10.0 mi NW 8.1 mph - N/A   Clear
4:15 AM 55.4 °F 50.9 °F 85% 29.80 in 10.0 mi NNW 8.1 mph - N/A   Scattered Clouds
4:35 AM 54.9 °F 48.7 °F 80% 29.81 in 10.0 mi NNW 12.7 mph 17.3 mph N/A   Scattered Clouds
4:55 AM 54.5 °F 46.9 °F 76% 29.82 in 10.0 mi NNW 16.1 mph 21.9 mph N/A   Clear
5:15 AM 53.6 °F 45.9 °F 75% 29.82 in 10.0 mi North 12.7 mph 23.0 mph N/A   Clear
5:35 AM 53.4 °F 45.7 °F 75% 29.84 in 10.0 mi North 10.4 mph 18.4 mph N/A   Scattered Clouds
5:55 AM 52.7 °F 45.7 °F 77% 29.85 in 10.0 mi NNW 8.1 mph - N/A   Scattered Clouds
6:15 AM 53.6 °F 45.7 °F 75% 29.86 in 10.0 mi NNW 11.5 mph - N/A   Mostly Cloudy
6:35 AM 53.1 °F 45.7 °F 76% 29.87 in 10.0 mi NNW 9.2 mph 16.1 mph N/A   Mostly Cloudy
6:55 AM 53.8 °F 46.0 °F 75% 29.87 in 10.0 mi NNW 9.2 mph 17.3 mph N/A   Overcast
7:15 AM 54.0 °F 45.9 °F 74% 29.88 in 10.0 mi NNW 12.7 mph 20.7 mph N/A   Overcast
7:35 AM 54.5 °F 46.0 °F 73% 29.89 in 10.0 mi North 13.8 mph 21.9 mph N/A   Overcast
7:55 AM 54.7 °F 46.0 °F 73% 29.89 in 10.0 mi North 13.8 mph 19.6 mph N/A   Overcast
8:15 AM 55.0 °F 46.2 °F 72% 29.90 in 10.0 mi North 12.7 mph 21.9 mph N/A   Overcast
8:35 AM 55.0 °F 46.0 °F 72% 29.91 in 10.0 mi North 13.8 mph 21.9 mph N/A   Overcast
8:55 AM 57.0 °F 46.2 °F 67% 29.91 in 10.0 mi NNW 17.3 mph 24.2 mph N/A   Mostly Cloudy
9:15 AM 56.5 °F 46.0 °F 68% 29.92 in 10.0 mi North 13.8 mph 20.7 mph N/A   Mostly Cloudy
9:35 AM 56.8 °F 46.0 °F 67% 29.93 in 10.0 mi North 17.3 mph 23.0 mph N/A   Overcast
9:55 AM 56.5 °F 43.7 °F 62% 29.94 in 10.0 mi NNE 13.8 mph 31.1 mph N/A   Mostly Cloudy
10:15 AM 57.4 °F 44.6 °F 62% 29.95 in 10.0 mi North 15.0 mph 24.2 mph N/A   Overcast
10:35 AM 57.4 °F 45.0 °F 63% 29.96 in 10.0 mi North 10.4 mph 21.9 mph N/A   Overcast
10:55 AM 58.6 °F 45.1 °F 61% 29.98 in 10.0 mi North 11.5 mph 20.7 mph N/A   Overcast
11:15 AM 59.0 °F 45.3 °F 60% 29.98 in 10.0 mi NNE 12.7 mph 18.4 mph N/A   Overcast
11:35 AM 59.4 °F 45.7 °F 61% 29.99 in 10.0 mi North 16.1 mph 21.9 mph N/A   Overcast
11:55 AM 59.2 °F 45.0 °F 59% 29.99 in 10.0 mi North 12.7 mph 21.9 mph N/A   Overcast
12:15 PM 61.5 °F 44.2 °F 53% 29.99 in 10.0 mi North 16.1 mph 21.9 mph N/A   Mostly Cloudy
12:35 PM 60.1 °F 44.8 °F 57% 29.99 in 10.0 mi North 15.0 mph 27.6 mph N/A   Mostly Cloudy
12:55 PM 61.5 °F 43.5 °F 52% 30.00 in 10.0 mi North 12.7 mph 21.9 mph N/A   Scattered Clouds
1:15 PM 60.6 °F 45.1 °F 57% 30.01 in 10.0 mi North 11.5 mph 21.9 mph N/A   Mostly Cloudy
1:35 PM 61.5 °F 44.6 °F 54% 30.01 in 10.0 mi NNE 12.7 mph 18.4 mph N/A   Mostly Cloudy
1:55 PM 62.6 °F 43.7 °F 50% 30.01 in 10.0 mi NNW 9.2 mph 19.6 mph N/A   Mostly Cloudy
2:15 PM 63.9 °F 44.2 °F 49% 30.01 in 10.0 mi NNW 15.0 mph 20.7 mph N/A   Scattered Clouds
2:35 PM 63.1 °F 43.3 °F 48% 30.01 in 10.0 mi North 15.0 mph 21.9 mph N/A   Scattered Clouds
3:15 PM 63.7 °F 43.2 °F 47% 30.01 in 10.0 mi NNW 13.8 mph 20.7 mph N/A   Scattered Clouds
3:35 PM 64.0 °F 43.9 °F 48% 30.02 in 10.0 mi North 10.4 mph 18.4 mph N/A   Scattered Clouds
3:55 PM 64.2 °F 42.4 °F 45% 30.02 in 10.0 mi NNE 13.8 mph 20.7 mph N/A   Scattered Clouds
4:15 PM 63.5 °F 42.3 °F 46% 30.01 in 10.0 mi North 13.8 mph 19.6 mph N/A   Scattered Clouds
4:35 PM 64.6 °F 42.8 °F 45% 30.01 in 10.0 mi NNW 12.7 mph - N/A   Scattered Clouds
4:55 PM 65.3 °F 43.5 °F 45% 30.01 in 10.0 mi NNE 10.4 mph 19.6 mph N/A   Scattered Clouds
5:15 PM 64.9 °F 43.0 °F 45% 30.01 in 10.0 mi NNW 12.7 mph 18.4 mph N/A   Clear
5:35 PM 64.8 °F 42.8 °F 45% 30.01 in 10.0 mi North 10.4 mph 18.4 mph N/A   Clear
5:55 PM 64.4 °F 43.0 °F 46% 30.01 in 10.0 mi NNW 13.8 mph 18.4 mph N/A   Clear
6:15 PM 64.0 °F 43.3 °F 47% 30.01 in 10.0 mi North 9.2 mph 17.3 mph N/A   Clear
6:35 PM 63.9 °F 44.6 °F 50% 30.02 in 10.0 mi NNW 6.9 mph - N/A   Scattered Clouds
6:55 PM 63.5 °F 44.4 °F 50% 30.02 in 10.0 mi NNW 9.2 mph - N/A   Clear
7:15 PM 63.1 °F 45.1 °F 52% 30.02 in 10.0 mi North 6.9 mph - N/A   Clear
7:35 PM 62.6 °F 45.3 °F 53% 30.02 in 10.0 mi North 6.9 mph - N/A   Clear
7:55 PM 61.2 °F 45.7 °F 57% 30.02 in 10.0 mi North 5.8 mph - N/A   Clear
8:15 PM 58.1 °F 47.8 °F 69% 30.03 in 10.0 mi Calm Calm - N/A   Clear
8:35 PM 55.2 °F 48.2 °F 77% 30.03 in 10.0 mi Calm Calm - N/A   Clear
8:55 PM 50.7 °F 48.4 °F 92% 30.03 in 10.0 mi Calm Calm - N/A   Clear
9:15 PM 49.8 °F 47.7 °F 92% 30.03 in 10.0 mi Calm Calm - N/A   Clear
9:35 PM 48.6 °F 46.6 °F 93% 30.04 in 10.0 mi Calm Calm - N/A   Clear
9:55 PM 47.8 °F 46.4 °F 95% 30.04 in 10.0 mi Calm Calm - N/A   Clear
10:15 PM 47.5 °F 46.2 °F 95% 30.04 in 10.0 mi Calm Calm - N/A   Clear
10:35 PM 46.4 °F 45.1 °F 95% 30.04 in 10.0 mi Calm Calm - N/A   Clear
10:55 PM 45.5 °F 44.6 °F 97% 30.04 in 10.0 mi Calm Calm - N/A   Clear
11:15 PM 45.5 °F 44.6 °F 97% 30.04 in 10.0 mi Calm Calm - N/A   Clear
11:35 PM 44.4 °F 43.5 °F 97% 30.04 in 1.5 mi Calm Calm - N/A   Mist
11:55 PM 44.6 °F 43.7 °F 97% 30.04 in 10.0 mi Calm Calm - N/A   Clear